User: anonymous   Login
Location: Little Chesterford
(52.0500°N, 0.1833°E)
Time: 12:07:24
(UTC+00:00)
Language:

Cosmos 1733 - Orbit

View from above orbital plane
View from above orbital plane
View from above satellite
View from above satellite

Ground track
Ground track

The orbit data is extracted from the following two-line orbital elements,

1 16611U 86018A   24056.70523019  .00015406  00000-0  51662-3 0  9991
2 16611  82.4838 128.7041 0010750 110.0889 250.1509 15.30722729 79807
Epoch (UTC): 25 February 2024 16:55:31
Eccentricity: 0.0010750
inclination: 82.4838°
perigee height: 466 km
apogee height: 481 km
right ascension of ascending node: 128.7041°
argument of perigee: 110.0889°
revolutions per day: 15.30722729
mean anomaly at epoch: 250.1509°
orbit number at epoch: 7980

The dashed part of the orbit path shows where the satellite is in the earth's shadow,  

DLR